Theta_e
325 325 325 327 324 321 323 322 320 322 325 323 318 318 321 320 317 320 323 321 325 333 337 341 344 344 345 345 346 347 346 347 348 347 349 349 349 350 350 350 350 349 350 349 346 345 345 345 345 346 345 345 346 347 347 348 348 348 347 348 348 348 348
324 324 324 326 325 324 322 320 321 325 326 324 322 319 319 320 318 319 320 319 322 324 329 341 346 344 345 345 344 347 348 348 348 347 348 349 350 350 350 351 350 349 350 348 346 344 344 344 343 344 345 347 347 347 348 347 348 347 347 347 348 349 349
324 325 324 323 324 326 324 323 325 325 320 320 321 319 318 318 318 318 320 321 322 322 327 337 343 343 344 345 345 346 348 349 349 348 348 349 349 349 351 352 351 351 350 347 344 341 341 341 341 342 345 348 348 347 348 347 347 347 346 347 348 349 349
324 324 323 320 321 325 325 325 327 325 322 321 321 320 319 318 317 318 319 320 321 324 329 333 338 342 343 344 345 345 347 349 350 349 349 348 349 349 350 351 351 351 349 346 342 340 339 339 338 339 343 345 346 347 346 346 346 346 346 347 348 348 348
323 322 323 323 322 324 323 323 323 323 324 323 322 322 320 319 318 318 320 319 320 329 338 338 340 343 342 343 344 344 347 349 350 351 350 350 349 349 349 350 350 351 349 345 343 342 342 341 340 340 341 343 345 346 346 346 347 346 346 348 348 347 347
320 322 327 327 327 326 325 323 322 322 323 321 320 320 321 321 319 318 320 319 320 333 342 342 344 344 343 345 344 344 347 349 351 351 352 352 351 350 350 349 349 352 350 345 343 343 343 344 344 343 343 343 345 346 346 347 348 347 347 348 348 347 347
323 325 329 328 327 328 326 326 326 326 325 321 318 317 319 321 320 321 321 319 325 340 345 343 346 346 345 346 346 345 347 349 352 353 353 354 353 352 351 350 350 352 352 348 345 344 343 344 345 346 346 346 345 345 345 347 349 349 349 349 348 347 348
326 326 329 329 328 328 325 325 327 326 325 323 322 321 322 320 319 321 321 319 327 341 346 346 349 349 348 348 347 346 346 349 353 354 355 356 355 354 353 352 352 353 351 348 345 344 344 344 345 346 346 347 347 347 347 346 347 349 350 350 349 349 349
321 322 324 325 325 326 325 326 328 327 327 327 326 325 324 321 320 322 320 319 326 338 344 347 349 347 346 347 347 347 347 348 351 354 356 357 356 355 355 354 354 353 351 349 346 345 345 344 344 344 343 344 347 349 349 348 348 349 350 350 350 350 349
317 317 318 320 322 325 325 326 327 328 328 327 325 323 321 321 324 324 320 320 327 338 344 346 346 344 344 347 347 347 349 349 350 353 355 355 356 356 356 355 355 355 352 350 349 347 346 345 344 344 343 341 342 346 349 350 349 349 349 348 348 349 350
319 319 321 325 325 324 322 324 326 327 328 328 326 322 319 322 325 323 323 325 326 330 337 341 343 344 344 346 346 346 349 349 350 353 353 355 356 356 356 356 355 356 354 353 354 351 349 349 347 348 346 341 338 343 347 348 349 349 348 345 345 347 349
324 325 327 328 326 323 323 324 325 326 328 328 326 321 322 326 323 319 326 331 325 326 332 334 337 342 344 345 345 346 349 348 349 351 352 353 355 354 355 355 354 356 355 356 356 353 352 353 350 348 347 342 339 341 345 346 347 349 348 344 343 346 348
326 328 329 329 327 326 325 325 325 326 328 328 325 323 326 327 322 320 327 331 327 328 331 330 333 340 342 343 344 345 348 349 348 349 350 351 352 352 353 353 353 354 353 355 355 351 352 354 351 348 346 343 341 341 344 346 346 347 348 347 345 346 346
325 327 328 328 327 325 325 326 326 327 327 328 327 326 327 327 325 326 329 330 329 329 331 334 337 340 343 345 347 347 348 348 348 348 348 348 350 351 351 351 352 353 352 353 353 351 351 352 352 351 348 346 343 341 343 346 346 347 348 348 347 347 346
323 327 328 328 327 326 325 324 326 327 327 327 328 328 329 328 326 328 330 329 330 329 333 341 344 346 350 350 348 347 347 348 348 347 346 346 347 349 350 350 351 352 352 352 352 352 351 350 351 351 351 349 346 343 343 346 348 349 349 349 349 349 349
320 324 327 326 326 326 323 323 326 327 326 326 327 328 331 329 326 328 330 326 328 334 339 343 345 347 348 348 347 346 346 348 348 345 344 344 345 347 349 350 350 351 352 351 351 351 351 350 351 351 350 350 348 345 344 346 348 350 350 351 350 350 350
319 324 326 324 324 322 319 322 326 327 327 327 327 328 330 331 328 328 327 327 332 340 340 340 342 342 342 345 346 345 345 347 346 343 342 343 345 345 347 349 349 350 351 352 352 352 350 350 350 350 349 350 349 347 346 347 348 349 350 351 350 349 349
319 323 326 324 321 318 320 327 329 328 328 327 327 328 329 331 330 329 329 330 336 339 335 334 338 340 341 344 345 345 347 348 346 343 343 344 345 346 346 347 349 349 350 351 351 352 351 349 348 348 348 349 349 350 349 349 349 348 347 348 348 348 347
320 324 325 320 317 319 327 334 332 330 330 329 328 329 328 331 332 332 332 331 332 336 336 337 340 344 347 349 349 348 347 346 345 343 344 345 346 347 347 348 348 348 349 351 351 351 350 349 347 348 348 347 348 349 350 349 348 348 346 345 345 345 345
323 323 321 318 321 326 331 333 332 331 331 330 329 327 328 331 333 333 334 331 332 338 341 339 341 346 349 350 352 352 348 345 343 341 344 347 347 348 348 348 349 349 350 351 352 350 349 348 348 348 348 347 347 347 347 346 346 347 347 347 347 346 345
324 320 318 320 324 326 328 330 331 331 329 329 329 325 326 330 331 333 334 332 335 341 342 341 343 345 344 343 347 349 348 345 343 340 342 346 346 347 348 347 347 346 345 348 350 349 348 348 348 348 348 348 347 347 346 344 343 344 345 346 347 345 345
325 321 319 321 320 321 325 328 330 330 330 331 330 326 326 330 332 334 334 333 337 342 343 344 345 344 339 336 339 345 346 344 343 341 343 344 344 345 346 346 346 343 342 346 348 348 348 348 347 347 347 346 346 347 346 343 340 341 342 344 345 344 344
324 322 320 320 319 321 327 329 331 332 331 331 330 325 324 328 332 334 333 333 339 343 344 345 345 339 334 333 337 342 343 343 342 342 343 343 343 345 345 346 347 346 343 344 346 346 346 345 345 344 345 345 345 346 346 343 341 341 341 341 343 344 344
323 323 321 321 321 325 331 331 331 331 330 331 328 320 322 328 332 334 334 333 338 343 344 344 342 336 333 336 340 341 341 342 342 343 344 344 344 345 345 346 346 344 342 343 345 345 344 344 343 342 341 341 342 343 344 343 343 343 343 343 344 344 345
322 322 321 321 323 330 334 331 330 330 331 328 323 321 328 334 331 333 336 334 338 345 345 341 337 337 340 342 342 341 341 343 344 345 346 346 345 345 346 345 345 345 345 345 345 344 342 342 341 340 339 340 341 343 344 344 344 343 342 343 344 344 345
322 322 321 320 324 331 333 330 330 331 327 324 325 331 338 338 335 337 339 338 342 346 344 340 340 343 344 342 341 341 342 344 346 347 347 346 346 347 346 345 345 346 345 344 343 342 342 341 340 340 341 343 344 345 345 344 344 342 340 340 342 343 344
324 323 322 321 324 331 333 331 330 330 328 331 336 340 339 336 337 339 339 341 346 344 341 342 344 345 343 340 339 341 342 344 346 347 348 348 349 349 348 346 346 345 343 342 342 342 342 341 340 340 342 344 345 344 344 344 343 342 342 343 343 344 344
324 322 323 325 329 334 335 333 333 333 334 337 339 339 336 335 336 336 337 341 345 343 342 345 345 343 343 342 342 343 343 344 346 347 348 348 348 347 347 348 347 344 342 342 342 341 341 341 340 339 341 344 344 343 343 342 341 342 344 344 344 344 345
329 326 329 332 335 336 335 335 336 336 336 337 337 337 337 335 335 335 336 338 343 344 345 346 344 343 344 344 343 343 344 345 347 348 348 347 346 347 347 347 345 343 341 342 341 340 339 339 338 338 339 342 343 343 342 341 341 343 344 343 343 343 343
332 332 333 334 335 336 335 335 336 337 337 338 337 337 338 336 336 337 335 335 341 345 345 345 344 342 343 344 343 344 345 347 348 349 349 347 347 347 346 344 343 342 342 342 342 342 340 339 339 338 337 339 341 341 339 338 340 342 343 342 343 342 342
329 331 335 336 335 336 336 335 336 336 337 338 338 338 339 338 338 339 335 333 339 343 344 344 343 343 343 344 344 346 346 347 349 349 348 347 347 346 343 342 342 343 342 342 343 344 342 340 339 339 337 336 336 336 336 337 340 341 342 342 342 342 342
329 331 336 336 334 335 336 336 336 336 337 338 338 339 339 337 337 337 334 333 338 342 344 344 344 344 343 342 344 346 347 347 349 348 345 344 345 344 342 341 342 344 343 343 343 343 343 341 339 337 336 336 335 336 338 339 340 341 341 341 342 342 341
330 332 334 333 332 335 336 335 335 336 336 337 339 340 340 339 338 337 336 337 339 341 345 347 346 345 344 342 343 344 345 346 348 346 343 341 340 341 342 342 343 344 343 342 342 342 341 340 338 336 335 335 336 338 339 339 339 340 340 340 340 341 341
329 331 333 332 332 334 336 335 334 335 336 337 340 342 340 340 342 342 341 341 343 344 346 345 344 344 345 343 343 344 344 345 345 343 341 340 341 343 344 344 344 344 344 342 341 340 339 337 336 336 337 337 337 338 339 339 339 339 340 340 340 340 341
329 330 331 330 330 332 333 332 332 334 336 337 339 342 342 340 343 345 344 342 343 346 344 341 340 342 343 342 343 345 344 343 341 341 341 340 343 345 345 345 345 344 342 340 338 337 337 337 336 337 338 338 338 338 339 339 339 339 340 340 340 340 341
328 330 330 329 329 329 329 329 330 333 337 338 338 341 342 340 340 344 346 344 341 340 341 342 341 341 341 341 343 344 343 341 341 343 343 342 343 344 344 344 344 342 340 338 335 335 337 337 337 338 338 338 338 338 338 338 338 339 340 340 339 340 340
329 330 329 327 327 327 328 328 330 333 337 338 338 339 340 340 340 341 343 345 343 339 338 340 341 340 340 341 342 343 343 343 343 343 343 343 344 344 344 343 342 341 339 337 336 336 337 338 338 338 338 338 337 337 337 336 335 337 339 339 339 340 340
Wind_Speed
5 3 3 6 7 4 2 4 5 0 3 5 6 4 4 5 6 3 1 5 4 3 4 4 5 6 7 7 7 7 8 8 7 6 5 4 4 5 5 5 7 7 7 6 5 4 3 4 5 7 9 11 11 12 12 13 14 14 15 17 17 17 18
5 2 3 5 5 5 3 3 0 3 0 4 5 4 4 5 5 3 2 6 5 1 1 4 7 8 8 8 7 7 8 8 8 7 6 5 5 5 5 6 7 7 8 8 7 6 4 2 0 2 4 6 8 11 12 12 13 14 15 16 16 16 17
6 6 5 5 6 7 6 4 2 1 4 3 2 3 5 5 5 4 3 4 4 3 2 1 6 8 8 8 6 6 7 8 8 7 6 6 6 5 5 6 7 8 8 9 9 7 3 1 2 3 4 6 7 9 10 11 13 14 14 14 14 16 17
5 6 7 6 6 7 5 4 3 4 4 4 3 4 4 5 6 5 3 3 2 1 2 3 5 5 7 7 6 5 5 6 6 6 6 7 7 6 6 6 7 8 8 9 9 7 6 4 3 6 9 9 9 10 11 12 12 13 14 13 14 17 17
5 6 6 5 3 4 5 5 5 3 2 3 4 4 4 4 6 5 4 4 1 3 1 3 2 2 5 6 5 4 4 5 4 5 5 6 6 6 6 6 7 9 9 8 8 8 7 7 5 7 10 11 11 12 12 11 10 12 14 14 15 17 15
6 4 2 3 5 4 4 4 4 4 3 3 4 4 3 3 5 5 5 5 2 4 2 2 2 2 4 6 5 4 5 6 5 5 5 6 6 6 6 6 7 9 9 8 8 8 8 8 7 8 9 11 11 12 11 10 9 12 14 15 16 15 13
2 3 5 3 3 5 6 6 5 5 4 4 5 5 4 3 4 4 4 5 2 4 3 2 2 2 4 5 4 5 6 7 7 7 6 6 6 5 6 6 6 7 8 8 9 9 7 7 8 9 10 11 11 12 12 12 12 13 14 14 15 15 15
2 2 3 2 1 4 7 6 6 6 5 4 5 6 6 5 5 4 4 4 1 3 3 3 3 3 5 6 5 5 6 7 7 8 7 6 6 6 6 6 6 6 6 7 8 9 8 8 7 8 10 11 11 11 12 13 14 14 14 14 14 16 17
6 5 4 4 5 6 7 6 5 6 7 6 5 5 5 5 5 4 5 4 2 4 4 4 5 6 7 8 7 6 6 8 8 8 8 6 6 6 6 7 7 6 5 5 7 8 8 8 8 7 6 7 10 12 12 12 14 14 14 15 15 15 16
7 7 6 4 4 5 6 7 6 6 9 7 5 4 5 4 3 3 6 4 2 5 7 6 5 7 8 9 9 8 7 8 8 8 8 7 6 6 6 6 7 6 5 4 5 6 7 6 8 8 8 7 8 10 12 12 13 14 14 14 15 14 14
8 7 5 3 4 6 7 8 9 8 9 7 5 5 5 3 2 3 4 3 3 2 5 6 5 7 8 9 9 9 9 9 9 9 8 7 6 6 5 5 5 5 5 4 4 6 6 6 7 8 9 9 8 9 10 11 13 14 14 13 13 13 14
12 8 3 3 7 8 7 8 8 8 8 8 7 6 4 3 4 5 2 1 5 6 2 3 5 7 8 8 9 9 9 10 10 9 8 7 7 7 5 4 4 4 4 4 4 5 6 6 7 8 9 10 9 9 10 11 13 14 14 13 12 12 13
13 6 2 4 8 9 8 9 8 7 8 9 8 8 5 4 5 5 3 3 6 6 5 1 3 7 8 7 8 9 10 10 10 10 9 8 8 7 6 4 4 4 4 4 3 4 5 6 7 9 10 11 10 9 11 13 14 14 13 12 13 12 12
13 8 6 6 9 10 9 11 10 8 8 10 10 9 7 6 7 6 5 5 6 7 4 3 3 5 7 8 8 10 11 11 11 10 9 8 8 8 7 5 5 5 4 4 3 3 4 6 7 9 9 10 10 10 10 12 15 14 13 12 13 12 11
11 9 8 8 10 11 11 12 11 9 9 9 9 8 7 7 8 7 5 6 7 6 1 4 5 6 8 9 9 10 11 11 11 10 9 8 8 7 7 6 5 5 5 4 4 3 3 4 6 7 7 8 9 10 10 11 13 13 12 12 12 12 10
9 9 10 11 11 12 14 13 11 10 10 9 8 8 7 7 8 7 6 7 6 2 4 6 6 8 9 11 11 11 11 11 11 10 9 9 9 8 7 7 6 5 5 4 4 4 4 4 4 5 6 6 7 9 9 9 10 11 11 10 10 11 10
8 8 11 11 10 10 12 12 12 13 12 10 9 8 8 9 8 6 5 5 3 3 5 5 6 8 10 11 12 12 12 13 12 10 10 10 10 9 8 8 7 6 5 4 4 4 4 4 4 3 3 4 5 6 7 7 7 8 8 8 8 9 10
9 8 8 8 10 11 8 5 9 13 13 12 11 9 9 10 9 7 7 6 2 1 3 4 5 7 8 10 12 12 12 14 13 11 10 10 10 9 8 8 7 6 6 5 5 4 4 4 4 4 3 2 2 3 5 5 5 5 7 8 9 10 12
8 5 6 9 12 9 1 4 3 5 7 9 11 11 9 8 8 9 10 10 7 5 3 2 2 5 6 8 11 12 12 13 12 11 11 11 10 10 9 9 8 7 7 7 6 5 4 3 3 3 3 3 2 2 2 3 4 6 9 9 10 11 13
6 5 9 11 8 1 4 5 4 3 3 6 8 10 10 9 10 11 11 11 8 4 4 3 3 5 7 8 9 12 12 12 11 11 11 11 11 11 10 9 8 7 7 7 7 6 4 3 3 3 3 3 3 2 3 3 4 6 7 8 9 11 12
5 8 10 9 6 3 5 4 4 6 7 7 8 9 8 8 9 10 10 10 6 5 5 5 5 6 7 7 9 12 13 12 11 10 10 11 11 11 10 9 9 8 8 8 7 6 5 4 4 4 4 4 3 3 3 4 5 6 6 7 8 10 11
5 7 8 8 10 9 8 8 8 9 8 6 7 8 7 6 7 9 10 9 7 6 6 7 7 7 6 6 8 14 15 13 11 10 10 11 11 11 11 10 9 8 9 8 7 7 6 5 5 4 4 4 3 4 4 4 5 6 6 6 6 8 10
6 7 8 8 9 7 4 4 4 4 4 5 4 7 8 6 6 9 9 9 8 7 8 9 8 7 6 6 8 16 18 15 13 11 11 11 11 11 11 10 9 9 9 9 8 6 6 6 5 4 3 2 2 3 4 4 5 6 6 6 7 8 9
8 8 8 8 7 3 2 3 3 1 3 6 6 9 7 3 4 8 10 10 9 9 11 11 9 7 5 1 9 17 17 14 13 12 11 11 11 11 11 10 10 10 10 9 8 6 6 5 4 3 3 3 3 3 3 4 5 5 5 6 7 9 10
9 10 9 8 6 1 4 6 4 1 4 7 8 7 2 2 2 8 9 9 9 11 13 12 9 6 3 9 14 16 15 14 13 12 12 12 11 11 11 11 12 11 10 9 8 6 5 4 3 3 3 3 3 3 3 4 5 5 7 7 8 9 10
9 8 8 8 6 1 5 6 3 2 5 7 5 4 6 6 2 2 4 7 9 13 14 12 7 7 10 14 15 15 14 14 14 13 12 12 12 12 12 12 12 11 10 8 7 6 5 4 4 3 3 2 2 2 2 3 4 5 6 8 8 9 9
8 7 8 9 6 2 5 5 1 3 4 3 6 10 11 8 6 6 4 5 8 12 13 10 8 10 13 13 15 15 14 14 14 14 14 13 13 13 13 12 11 11 9 8 6 6 5 5 4 3 2 2 2 2 3 4 5 5 5 6 6 7 8
7 8 6 4 1 3 4 3 3 3 7 9 10 12 13 11 9 7 7 6 6 9 11 11 12 13 14 15 16 16 15 14 15 15 14 14 13 12 12 12 11 10 8 7 6 5 5 4 3 3 2 2 3 3 3 5 5 4 5 5 6 7 9
4 4 1 2 3 3 3 3 5 8 12 12 11 11 13 15 12 8 8 8 6 7 10 13 14 14 15 15 15 15 15 15 15 15 14 14 13 12 12 12 11 9 7 5 5 5 4 4 3 3 3 3 3 3 5 6 5 4 6 7 7 8 10
1 3 1 2 2 2 3 4 5 7 10 10 9 10 13 15 13 9 10 10 6 7 12 15 16 15 16 15 14 14 15 15 15 15 15 14 13 13 13 12 10 8 6 4 3 3 4 4 4 4 4 4 4 5 7 8 6 6 9 9 8 9 10
2 3 3 2 2 1 2 4 6 8 11 11 9 10 12 14 13 11 12 12 7 8 12 14 16 16 16 16 15 15 15 15 15 15 15 15 14 13 12 11 9 7 5 3 3 3 3 4 4 5 5 5 6 7 8 7 6 7 9 9 8 9 11
4 2 3 2 3 2 2 4 7 10 14 14 12 12 12 14 14 12 12 12 8 10 12 14 17 18 16 16 16 15 15 15 15 15 15 15 14 13 11 10 8 5 4 3 3 3 4 3 4 5 6 6 7 7 7 6 7 8 9 9 9 10 11
6 3 2 5 5 6 4 4 9 12 14 15 14 13 12 11 10 9 9 8 9 12 14 15 19 19 16 15 15 15 15 15 15 15 15 14 13 12 11 10 7 5 4 3 3 3 3 3 4 6 6 6 7 6 6 7 8 8 8 9 10 10 9
6 2 4 6 4 4 1 6 11 14 15 15 14 13 10 6 4 5 7 10 12 13 14 16 17 17 15 15 14 14 14 15 14 15 15 14 13 11 10 8 6 4 4 4 3 4 3 3 4 5 5 5 5 5 5 7 7 7 8 9 10 11 10
4 3 5 5 4 5 6 10 13 14 14 14 14 12 9 4 1 2 7 12 14 14 14 13 13 14 15 14 13 13 13 13 13 13 13 13 13 12 9 7 6 5 4 4 3 3 3 3 3 3 3 3 3 4 6 8 8 7 8 9 9 10 9
5 3 3 4 6 8 10 13 15 12 10 12 14 13 10 6 2 4 6 11 15 16 15 12 12 13 13 12 12 12 12 12 13 13 13 12 12 11 9 7 6 5 4 3 3 3 3 3 3 2 2 2 2 4 6 8 7 7 8 9 9 9 8
5 3 4 6 10 12 13 14 13 9 8 11 13 13 11 7 4 4 8 11 13 13 14 12 11 11 11 11 12 12 13 13 13 14 14 12 11 9 9 7 6 6 5 4 3 3 3 3 3 2 1 1 2 4 5 5 4 5 8 9 8 8 8
Wind_Direction
172 252 238 210 256 268 163 222 236 279 348 292 289 295 297 299 292 288 266 267 261 158 159 172 175 178 170 174 181 176 177 182 193 197 178 158 134 124 123 119 118 116 119 113 90 92 145 185 196 196 202 210 214 215 212 210 215 216 211 208 205 200 199
137 163 236 190 227 262 243 251 274 89 104 274 286 291 286 283 285 294 291 285 284 263 224 187 190 195 184 181 181 173 174 186 201 204 182 159 139 133 132 134 139 134 133 131 107 87 82 80 122 223 223 222 222 221 215 212 219 222 218 212 207 203 198
132 158 214 189 184 228 261 310 352 260 263 263 259 279 290 292 292 296 285 288 298 305 344 215 211 204 185 177 173 172 180 191 202 202 183 166 153 149 151 154 154 147 149 144 123 109 113 94 334 272 229 217 215 214 209 207 217 226 223 211 205 207 204
149 171 217 221 184 187 229 270 247 247 284 299 289 282 293 300 297 298 293 278 286 356 2 287 255 206 176 171 167 176 181 183 193 195 183 173 166 166 173 170 160 159 171 168 149 141 150 159 231 234 213 208 205 205 208 207 210 215 209 205 212 213 205
191 205 212 250 252 189 209 238 237 238 251 268 282 279 277 296 298 303 306 291 326 68 115 249 239 158 160 158 154 164 156 151 170 179 175 173 173 178 184 183 173 175 192 195 178 177 177 173 192 205 205 210 205 203 209 208 210 208 198 200 215 213 204
217 208 109 342 323 300 267 266 263 265 264 262 279 280 265 277 296 306 309 305 16 94 150 192 97 104 141 141 143 143 130 130 142 152 161 167 172 179 188 195 186 183 203 218 204 195 191 188 191 188 196 208 208 206 203 197 204 206 200 202 205 200 198
235 80 75 38 327 288 269 274 282 284 287 279 282 298 308 301 298 299 291 298 25 91 128 142 120 130 140 143 149 135 121 125 135 142 150 156 158 162 174 190 189 183 200 221 217 203 186 183 195 195 193 199 205 207 200 193 199 202 200 203 198 189 193
238 129 116 130 236 255 251 251 258 264 274 287 292 305 315 300 291 293 280 281 29 101 126 146 153 157 155 161 164 144 128 130 139 145 149 152 152 152 162 177 185 185 196 210 213 207 193 179 187 196 198 197 195 197 197 193 194 196 195 196 196 193 195
221 208 194 187 205 231 247 249 246 253 263 276 288 291 290 284 289 298 293 303 76 126 159 167 167 172 175 173 172 165 141 137 146 149 149 153 153 155 164 175 179 181 195 208 207 208 204 186 175 176 185 197 195 189 191 192 190 192 192 190 194 197 196
225 227 227 214 219 225 236 246 246 248 251 256 279 287 278 285 312 295 278 298 68 144 173 179 176 175 175 173 176 174 150 141 150 151 149 152 151 155 167 174 175 175 188 206 205 209 215 199 181 174 169 183 203 195 189 189 186 188 193 191 191 195 196
249 254 247 215 234 231 227 234 234 238 243 245 265 285 292 303 293 273 272 295 312 259 174 170 183 186 181 178 179 175 155 147 149 145 144 145 143 149 163 171 170 171 185 204 208 212 216 203 190 185 174 173 194 208 199 188 182 184 191 193 192 191 193
254 272 277 209 233 244 244 243 235 231 237 237 245 267 301 323 279 281 312 248 279 301 313 166 181 190 190 183 178 172 158 152 151 145 143 144 143 149 160 164 158 158 170 182 200 211 211 201 191 188 180 172 182 210 213 197 186 185 187 189 190 190 189
245 253 239 215 238 250 256 257 247 230 228 235 242 253 270 277 272 296 327 268 264 292 310 311 159 181 192 187 175 165 157 154 153 150 151 153 153 156 163 160 150 148 150 152 172 194 194 197 193 187 186 182 183 203 215 207 196 191 189 186 185 188 189
241 234 223 224 237 244 247 252 249 231 223 232 241 250 257 256 261 278 287 271 272 287 313 32 83 156 172 171 164 158 157 157 155 157 162 164 164 163 164 163 152 144 139 135 138 148 166 185 190 186 188 192 190 196 211 214 206 199 197 191 184 185 188
240 228 223 225 232 240 243 243 240 233 229 229 234 246 253 250 258 267 263 262 271 271 278 88 107 141 152 160 167 165 163 160 159 162 167 169 170 169 166 166 160 152 146 137 131 122 129 167 185 188 189 195 194 193 201 213 212 207 206 200 188 184 186
239 219 220 228 227 236 244 237 227 227 230 228 228 236 238 243 257 261 247 260 280 246 138 130 145 162 168 173 176 174 170 167 168 171 172 173 176 174 171 171 168 165 162 150 138 128 118 131 168 189 192 193 195 194 194 200 205 206 209 209 196 186 190
246 216 222 232 225 232 242 229 215 220 226 229 234 235 232 238 255 265 255 270 326 98 143 163 169 178 185 182 180 180 174 170 174 177 176 176 178 178 176 176 177 178 178 170 156 142 124 115 124 153 178 188 196 200 199 196 196 196 201 209 202 190 197
250 217 213 231 231 235 241 211 208 221 224 226 232 236 237 235 237 252 267 277 291 171 199 212 190 186 189 185 182 180 174 172 175 177 178 178 179 181 180 180 182 184 184 183 178 165 146 125 116 115 117 130 175 203 199 187 188 199 207 211 206 199 208
250 213 203 232 238 235 185 103 168 224 235 235 238 246 252 245 236 241 254 263 261 245 231 214 174 168 166 170 175 175 175 176 173 173 177 180 180 181 182 185 190 192 191 191 189 183 171 146 134 132 126 120 121 128 134 145 183 216 222 220 211 205 212
244 221 216 231 246 220 112 111 117 145 210 225 236 251 251 242 239 239 244 255 255 223 178 160 148 149 148 154 167 173 176 177 174 174 176 178 181 181 182 186 190 193 196 193 187 187 193 192 173 166 169 162 145 126 117 142 185 211 217 215 211 209 212
233 240 233 233 251 232 191 192 183 193 216 220 225 248 252 237 234 234 239 248 234 181 162 151 142 155 164 166 172 177 179 178 176 176 171 173 178 177 177 182 187 194 199 195 190 190 198 211 210 194 185 182 179 174 162 166 195 211 211 207 209 215 219
222 251 249 237 243 241 231 233 221 212 232 240 231 249 261 242 224 222 230 239 219 178 160 151 148 161 186 198 180 176 179 179 174 171 166 168 172 171 170 171 174 187 196 193 192 195 195 202 208 202 193 189 186 185 181 188 208 216 218 217 218 221 224
225 242 248 240 242 247 240 238 214 192 226 231 224 245 249 231 217 219 224 227 213 186 167 161 161 177 215 228 173 164 173 178 174 170 165 165 167 166 164 159 157 170 185 187 187 187 183 184 188 192 204 213 204 192 187 198 216 221 221 224 230 230 227
227 229 243 249 247 249 25 9 8 360 222 211 222 242 239 207 212 224 226 225 209 183 170 169 178 206 237 204 138 153 165 169 169 170 166 164 164 161 157 156 158 165 173 174 174 171 170 176 187 204 224 232 233 226 203 200 219 235 234 227 231 236 235
229 226 237 248 243 219 35 3 344 289 213 212 225 243 293 50 217 218 217 219 199 175 173 184 199 206 142 106 124 144 153 155 159 163 162 160 160 158 159 160 159 159 160 162 166 174 184 198 213 226 233 231 233 236 212 197 207 224 232 229 227 231 235
238 234 241 249 240 131 41 353 335 218 222 226 239 307 4 17 338 242 215 209 190 179 186 197 194 152 125 123 131 139 144 150 153 154 156 155 152 153 158 159 157 158 161 165 173 188 209 226 235 238 236 229 227 226 216 220 222 222 229 232 231 228 227
244 240 240 248 243 91 40 344 288 192 233 289 336 331 331 344 351 338 301 235 199 191 195 192 163 138 133 134 135 135 140 147 149 152 154 152 150 153 155 155 158 162 166 170 181 202 222 239 250 249 236 221 226 228 225 236 240 234 227 226 226 229 228
237 241 240 250 290 52 28 322 278 283 313 335 337 318 310 317 326 325 312 286 235 208 194 172 155 146 140 137 134 135 140 143 147 152 153 151 155 158 153 153 159 166 171 179 196 220 235 248 254 251 245 229 225 228 238 243 243 246 244 227 210 217 227
232 261 300 47 33 31 19 321 301 308 314 320 319 305 296 295 298 301 305 301 275 221 189 165 154 152 146 141 138 138 141 144 146 149 152 155 157 156 155 160 166 170 181 199 220 239 250 254 254 253 250 241 229 227 240 242 232 234 249 240 214 217 231
248 262 126 66 13 12 17 347 332 327 325 322 313 298 287 286 288 285 285 289 277 217 190 168 155 155 152 144 140 139 140 143 145 147 151 154 154 158 165 171 173 179 195 211 211 223 242 248 252 254 247 241 234 229 239 244 232 223 240 244 228 224 233
241 228 154 89 350 42 40 355 352 348 341 335 319 296 282 281 281 275 272 273 256 206 191 173 157 154 153 145 140 139 139 142 145 149 153 155 156 164 173 176 176 183 204 206 180 192 226 237 248 260 259 254 247 238 239 246 239 227 234 241 240 243 247
248 229 115 19 308 180 132 359 2 357 345 339 328 308 290 282 277 270 264 259 225 187 185 172 153 147 149 146 140 139 142 145 148 154 160 163 165 169 176 180 180 183 200 203 185 195 221 231 250 268 270 265 256 247 241 239 239 236 234 231 233 249 260
249 225 74 350 287 204 180 359 3 358 346 338 330 319 305 289 275 256 238 219 182 170 172 161 146 141 142 142 141 143 148 151 153 160 168 172 174 176 178 180 179 181 194 199 193 205 223 239 258 268 268 262 254 246 241 241 243 242 241 239 237 244 257
245 227 43 5 312 233 250 348 350 349 346 341 335 329 319 297 265 216 177 157 149 154 159 153 144 139 136 138 141 144 149 155 160 167 172 175 174 171 169 171 174 180 188 188 195 214 231 252 261 260 259 257 253 244 236 239 239 232 234 243 244 243 254
281 358 32 16 335 309 323 334 335 339 344 345 342 341 338 325 276 143 142 141 139 138 140 141 140 135 134 137 140 140 146 157 166 171 175 176 171 165 163 172 178 179 187 200 217 229 235 246 250 249 250 251 253 247 231 224 224 227 232 238 242 245 256
304 348 20 1 330 313 313 320 323 328 342 347 346 349 352 356 37 91 116 134 139 135 128 124 126 131 133 137 139 142 147 155 163 167 170 174 174 169 168 178 185 184 190 209 235 239 228 223 222 228 239 241 245 252 242 226 218 226 235 238 241 246 251
281 315 338 324 313 307 305 307 309 312 330 340 341 342 348 359 29 94 115 122 127 129 127 122 122 128 134 138 140 144 148 153 160 165 167 170 176 174 170 178 187 188 190 202 221 222 213 211 210 213 238 256 243 248 253 242 220 224 237 240 241 246 248